DW6610 Weather Reports


time (UTC)temp
C
wind
direction
speed
KPH
gust
KPH
rain 1hr
cm
rain 24hr
cm
rain mn
cm
humidity
%
barometer
mb
20260905171052 38 346 1.6 8.0 0.00 0.00 0.00 51 1014.7
20260905170552 38 204 1.6 8.0 0.00 0.00 0.00 52 1014.7
20260905170104 37 96 3.2 8.0 0.00 0.00 0.00 52 1014.7
20260905165551 38 123 0.0 6.4 0.00 0.00 0.00 53 1014.8
20260905165051 37 135 1.6 6.4 0.00 0.00 0.00 54 1014.9
20260905164606 37 129 1.6 6.4 0.00 0.00 0.00 50 1014.9
20260905164055 37 143 1.6 6.4 0.00 0.00 0.00 51 1015.0
20260905163551 37 32 1.6 6.4 0.00 0.00 0.00 52 1015.1
20260905163108 37 130 1.6 6.4 0.00 0.00 0.00 55 1015.1
20260905162551 37 98 1.6 6.4 0.00 0.00 0.00 54 1015.2
20260905162052 37 101 0.0 8.0 0.00 0.00 0.00 59 1015.1
20260905161606 36 115 3.2 8.0 0.00 0.00 0.00 56 1015.3
20260905161052 37 122 1.6 6.4 0.00 0.00 0.00 59 1015.3
20260905160551 36 103 1.6 6.4 0.00 0.00 0.00 60 1015.4
20260905160106 36 122 1.6 6.4 0.00 0.00 0.00 55 1015.5
20260905155552 36 121 1.6 6.4 0.00 0.00 0.00 60 1015.5
20260905155051 36 175 1.6 4.8 0.00 0.00 0.00 62 1015.5
20260905154606 35 123 1.6 4.8 0.00 0.00 0.00 62 1015.4
20260905154053 36 152 1.6 4.8 0.00 0.00 0.00 63 1015.4
20260905153555 36 136 0.0 4.8 0.00 0.00 0.00 61 1015.4
20260905153104 36 93 1.6 4.8 0.00 0.00 0.00 64 1015.4
20260905152552 35 97 0.0 4.8 0.00 0.00 0.00 63 1015.5
20260905152051 35 0 1.6 4.8 0.00 0.00 0.00 62 1015.5
20260905151636 35 0 0.0 3.2 0.00 0.00 0.00 64 1015.6
20260905151052 35 84 0.0 3.2 0.00 0.00 0.00 63 1015.6
20260905150551 35 157 0.0 3.2 0.00 0.00 0.00 64 1015.5
20260905150109 35 160 0.0 4.8 0.00 0.00 0.00 67 1015.6
20260905145553 35 0 0.0 4.8 0.00 0.00 0.00 68 1015.6
20260905145053 34 117 0.0 1.6 0.00 0.00 0.00 65 1015.6
20260905144605 34 0 0.0 1.6 0.00 0.00 0.00 68 1015.5
20260905144051 33 0 0.0 3.2 0.00 0.00 0.00 69 1015.3
20260905143552 33 136 0.0 4.8 0.00 0.00 0.00 71 1015.3
20260905143104 33 131 0.0 4.8 0.00 0.00 0.00 70 1015.4
20260905142555 33 0 0.0 4.8 0.00 0.00 0.00 67 1015.4
20260905142051 32 105 0.0 4.8 0.00 0.00 0.00 71 1015.5
20260905141601 32 108 1.6 4.8 0.00 0.00 0.00 71 1015.5
20260905141050 32 109 0.0 4.8 0.00 0.00 0.00 72 1015.5
20260905140551 32 93 0.0 1.6 0.00 0.00 0.00 73 1015.5
20260905140105 32 72 0.0 3.2 0.00 0.00 0.00 73 1015.4
20260905135551 31 0 0.0 3.2 0.00 0.00 0.00 73 1015.3
20260905135052 31 72 0.0 1.6 0.00 0.00 0.00 75 1015.3
20260905134607 31 72 0.0 1.6 0.00 0.00 0.00 75 1015.3
20260905134055 30 82 0.0 1.6 0.00 0.00 0.00 77 1015.3
20260905133552 30 0 0.0 1.6 0.00 0.00 0.00 77 1015.3
20260905133103 29 0 0.0 1.6 0.00 0.00 0.00 80 1015.3
20260905132551 28 81 0.0 1.6 0.00 0.00 0.00 80 1015.3
20260905132051 28 0 0.0 3.2 0.00 0.00 0.00 84 1015.2
20260905131609 27 0 0.0 3.2 0.00 0.00 0.00 85 1015.3
20260905131052 27 77 0.0 4.8 0.00 0.00 0.00 86 1015.4
20260905130551 26 58 0.0 4.8 0.00 0.00 0.00 88 1015.2
20260905130104 26 81 1.6 4.8 0.00 0.00 0.00 89 1015.2
20260905125551 25 51 0.0 3.2 0.00 0.00 0.00 90 1015.1
20260905125054 25 76 0.0 3.2 0.00 0.00 0.00 91 1015.2
20260905124601 25 76 0.0 3.2 0.00 0.00 0.00 92 1015.2
20260905124052 25 0 0.0 1.6 0.00 0.00 0.00 93 1015.2
20260905123552 24 0 0.0 0.0 0.00 0.00 0.00 93 1015.3
20260905123113 24 0 0.0 0.0 0.00 0.00 0.00 94 1015.1
20260905122554 24 0 0.0 1.6 0.00 0.00 0.00 94 1015.1
20260905122052 24 0 0.0 1.6 0.00 0.00 0.00 94 1015.1
20260905121559 24 0 0.0 1.6 0.00 0.00 0.00 94 1015.0
20260905121052 24 82 0.0 1.6 0.00 0.00 0.00 94 1014.9
20260905120554 24 0 0.0 1.6 0.00 0.00 0.00 94 1014.9
20260905120105 23 0 0.0 1.6 0.00 0.00 0.00 94 1014.9
20260905115551 23 0 0.0 1.6 0.00 0.00 0.00 94 1014.9
20260905115052 23 0 0.0 1.6 0.00 0.00 0.00 94 1014.9
20260905114600 23 0 0.0 3.2 0.00 0.00 0.00 95 1014.9
20260905114051 23 79 0.0 3.2 0.00 0.00 0.00 95 1014.8
20260905113552 23 47 0.0 1.6 0.00 0.00 0.00 95 1014.9
20260905113107 23 79 0.0 1.6 0.00 0.00 0.00 95 1014.8
20260905112555 23 0 0.0 1.6 0.00 0.00 0.00 95 1014.6
20260905112053 23 0 0.0 1.6 0.00 0.00 0.00 96 1014.5
20260905111604 23 0 0.0 1.6 0.00 0.00 0.00 96 1014.6
20260905111052 23 0 0.0 1.6 0.00 0.00 0.00 96 1014.6
20260905110555 23 0 0.0 1.6 0.00 0.00 0.00 96 1014.6
20260905110100 23 0 0.0 0.0 0.00 0.00 0.00 96 1014.6
20260905105551 23 0 0.0 0.0 0.00 0.00 0.00 96 1014.4
20260905105052 23 0 0.0 1.6 0.00 0.00 0.00 96 1014.5
20260905104600 23 0 0.0 1.6 0.00 0.00 0.00 96 1014.5
20260905104051 23 0 0.0 1.6 0.00 0.00 0.00 96 1014.4
20260905103551 23 0 0.0 0.0 0.00 0.00 0.00 96 1014.5
20260905103106 23 0 0.0 0.0 0.00 0.00 0.00 96 1014.4
20260905102554 23 0 0.0 0.0 0.00 0.00 0.00 95 1014.4
20260905102051 23 0 0.0 1.6 0.00 0.00 0.00 95 1014.3
20260905101606 23 0 0.0 1.6 0.00 0.00 0.00 95 1014.3
20260905101051 23 0 0.0 0.0 0.00 0.00 0.00 95 1014.3
20260905100552 23 0 0.0 0.0 0.00 0.00 0.00 95 1014.3
20260905100109 23 0 0.0 0.0 0.00 0.00 0.00 95 1014.4
20260905095552 23 0 0.0 0.0 0.00 0.00 0.00 95 1014.3
20260905095051 23 0 0.0 0.0 0.00 0.00 0.00 94 1014.3
20260905094603 24 0 0.0 0.0 0.00 0.00 0.00 94 1014.3
20260905094051 24 0 0.0 0.0 0.00 0.00 0.00 94 1014.4
20260905093552 24 0 0.0 0.0 0.00 0.00 0.00 94 1014.4
20260905093105 24 0 0.0 1.6 0.00 0.00 0.00 94 1014.2
20260905092552 24 0 0.0 1.6 0.00 0.00 0.00 94 1014.2
20260905092052 24 77 0.0 1.6 0.00 0.00 0.00 94 1014.2
20260905091604 24 0 0.0 1.6 0.00 0.00 0.00 94 1014.3
20260905091052 24 0 0.0 0.0 0.00 0.00 0.00 94 1014.3
20260905090551 24 0 0.0 0.0 0.00 0.00 0.00 94 1014.3
20260905090100 24 0 0.0 0.0 0.00 0.00 0.00 94 1014.3
20260905085553 24 0 0.0 0.0 0.00 0.00 0.00 93 1014.3
20260905085051 24 0 0.0 0.0 0.00 0.00 0.00 93 1014.3
20260905084611 24 0 0.0 0.0 0.00 0.00 0.00 93 1014.3
20260905084052 24 0 0.0 0.0 0.00 0.00 0.00 93 1014.2
20260905083554 25 0 0.0 1.6 0.00 0.00 0.00 93 1014.2
20260905083100 25 0 0.0 1.6 0.00 0.00 0.00 93 1014.2
20260905082551 25 0 0.0 1.6 0.00 0.00 0.00 93 1014.2
20260905082051 25 0 0.0 0.0 0.00 0.00 0.00 93 1014.3
20260905081603 25 0 0.0 0.0 0.00 0.00 0.00 93 1014.4
20260905081051 25 0 0.0 0.0 0.00 0.00 0.00 92 1014.5
20260905080551 25 0 0.0 0.0 0.00 0.00 0.00 92 1014.5
20260905080140 25 0 0.0 0.0 0.00 0.00 0.00 92 1014.4
20260905075550 25 0 0.0 0.0 0.00 0.00 0.00 92 1014.5
20260905075051 25 0 0.0 0.0 0.00 0.00 0.00 92 1014.5
20260905074603 25 0 0.0 0.0 0.00 0.00 0.00 92 1014.4
20260905074052 25 0 0.0 0.0 0.00 0.00 0.00 92 1014.4
20260905073551 25 0 0.0 1.6 0.00 0.00 0.00 92 1014.4
20260905073105 25 0 0.0 1.6 0.00 0.00 0.00 91 1014.4
20260905072554 25 0 0.0 1.6 0.00 0.00 0.00 91 1014.4
20260905072051 25 0 0.0 0.0 0.00 0.00 0.00 91 1014.4
20260905071605 25 0 0.0 0.0 0.00 0.00 0.00 90 1014.4
20260905071051 25 0 0.0 0.0 0.00 0.00 0.00 90 1014.4
20260905070555 25 0 0.0 0.0 0.00 0.00 0.00 89 1014.5
20260905070106 25 0 0.0 0.0 0.00 0.00 0.00 89 1014.5
20260905065553 25 0 0.0 0.0 0.00 0.00 0.00 89 1014.4
20260905065051 25 0 0.0 0.0 0.00 0.00 0.00 89 1014.5
20260905064605 26 0 0.0 0.0 0.00 0.00 0.00 89 1014.4
20260905064052 26 0 0.0 0.0 0.00 0.00 0.00 88 1014.4
20260905063551 26 0 0.0 0.0 0.00 0.00 0.00 89 1014.5
20260905063102 26 0 0.0 0.0 0.00 0.00 0.00 89 1014.6
20260905062551 26 0 0.0 0.0 0.00 0.00 0.00 87 1014.5
20260905062051 26 0 0.0 0.0 0.00 0.00 0.00 87 1014.4
20260905061609 26 0 0.0 0.0 0.00 0.00 0.00 86 1014.4
20260905061052 26 0 0.0 0.0 0.00 0.00 0.00 85 1014.4
20260905060551 26 0 0.0 0.0 0.00 0.00 0.00 84 1014.4
20260905060109 26 0 0.0 0.0 0.00 0.00 0.00 83 1014.5
20260905055553 26 0 0.0 0.0 0.00 0.00 0.00 83 1014.5
20260905055056 26 0 0.0 0.0 0.00 0.00 0.00 83 1014.5
20260905054616 26 0 0.0 0.0 0.00 0.00 0.00 82 1014.4
20260905054052 26 0 0.0 0.0 0.00 0.00 0.00 83 1014.4
20260905053555 26 0 0.0 0.0 0.00 0.00 0.00 82 1014.5
20260905053117 26 0 0.0 0.0 0.00 0.00 0.00 82 1014.5
20260905052556 26 0 0.0 0.0 0.00 0.00 0.00 81 1014.4
20260905052051 27 0 0.0 0.0 0.00 0.00 0.00 81 1014.6
20260905051601 27 0 0.0 0.0 0.00 0.00 0.00 80 1014.5
20260905051051 27 0 0.0 0.0 0.00 0.00 0.00 80 1014.5
20260905050551 27 0 0.0 0.0 0.00 0.00 0.00 80 1014.6
20260905050106 27 0 0.0 0.0 0.00 0.00 0.00 80 1014.5
20260905045551 27 0 0.0 0.0 0.00 0.00 0.00 79 1014.5
20260905045052 27 0 0.0 0.0 0.00 0.00 0.00 79 1014.5
20260905044607 27 0 0.0 1.6 0.00 0.00 0.00 79 1014.6
20260905044052 27 0 0.0 1.6 0.00 0.00 0.00 78 1014.6
20260905043551 27 0 0.0 1.6 0.00 0.00 0.00 78 1014.7
20260905043114 27 0 0.0 0.0 0.00 0.00 0.00 78 1014.7
20260905042552 27 89 0.0 0.0 0.00 0.00 0.00 79 1014.6
20260905042052 27 0 0.0 0.0 0.00 0.00 0.00 78 1014.6
20260905041603 27 0 0.0 0.0 0.00 0.00 0.00 78 1014.6
20260905041055 28 0 0.0 1.6 0.00 0.00 0.00 78 1014.6
20260905040551 28 0 0.0 1.6 0.00 0.00 0.00 78 1014.7
20260905040146 28 89 0.0 1.6 0.00 0.00 0.00 77 1014.7
20260905035552 28 0 0.0 1.6 0.00 0.00 0.00 77 1014.6
20260905035052 28 0 0.0 1.6 0.00 0.00 0.00 78 1014.6
20260905034602 28 0 0.0 1.6 0.00 0.00 0.00 78 1014.6
20260905034051 28 89 0.0 1.6 0.00 0.00 0.00 77 1014.6
20260905033551 28 89 0.0 1.6 0.00 0.00 0.00 76 1014.6
20260905033101 28 0 0.0 1.6 0.00 0.00 0.00 75 1014.6
20260905032555 29 0 0.0 1.6 0.00 0.00 0.00 73 1014.7
20260905032051 29 0 0.0 1.6 0.00 0.00 0.00 73 1014.6
20260905031604 29 0 0.0 1.6 0.00 0.00 0.00 72 1014.7
20260905031054 29 0 0.0 1.6 0.00 0.00 0.00 72 1014.7
20260905030551 30 89 0.0 3.2 0.00 0.00 0.00 71 1014.7
20260905025552 30 96 0.0 1.6 0.00 0.00 0.00 71 1014.8
20260905025051 30 0 0.0 1.6 0.00 0.00 0.00 71 1014.7
20260905024601 30 0 0.0 1.6 0.00 0.00 0.00 71 1014.6
20260905024051 30 0 0.0 1.6 0.00 0.00 0.00 70 1014.6
20260905023551 30 0 0.0 1.6 0.00 0.00 0.00 69 1014.5
20260905023102 30 92 0.0 1.6 0.00 0.00 0.00 69 1014.5
20260905022552 30 0 0.0 3.2 0.00 0.00 0.00 68 1014.6
20260905022054 30 0 0.0 3.2 0.00 0.00 0.00 68 1014.5
20260905021600 30 0 0.0 1.6 0.00 0.00 0.00 68 1014.6
20260905021054 31 88 0.0 4.8 0.00 0.00 0.00 68 1014.5
20260905020554 31 0 0.0 4.8 0.00 0.00 0.00 67 1014.4
20260905020100 30 52 0.0 4.8 0.00 0.00 0.00 68 1014.4
20260905015552 30 0 0.0 4.8 0.00 0.00 0.00 69 1014.4
20260905015052 30 236 0.0 1.6 0.00 0.00 0.00 70 1014.4
20260905014602 30 76 0.0 1.6 0.00 0.00 0.00 70 1014.3
20260905014051 30 0 0.0 1.6 0.00 0.00 0.00 71 1014.2
20260905013552 30 0 0.0 1.6 0.00 0.00 0.00 71 1014.0
20260905013100 30 0 0.0 0.0 0.00 0.00 0.00 72 1014.2
20260905012551 30 0 0.0 0.0 0.00 0.00 0.00 71 1014.2
20260905012051 30 0 0.0 0.0 0.00 0.00 0.00 71 1014.2
20260905011617 31 0 0.0 0.0 0.00 0.00 0.00 70 1014.1
20260905011050 31 0 0.0 0.0 0.00 0.00 0.00 69 1014.1
20260905010552 31 0 0.0 1.6 0.00 0.00 0.00 68 1014.1
20260905010100 32 0 0.0 1.6 0.00 0.00 0.00 66 1014.0
20260905005551 32 0 0.0 1.6 0.00 0.00 0.00 64 1014.0
20260905005051 32 0 0.0 1.6 0.00 0.00 0.00 61 1013.9
20260905004600 32 0 0.0 0.0 0.00 0.00 0.00 59 1014.0
20260905004051 33 0 0.0 1.6 0.00 0.00 0.00 57 1014.0
20260905003551 33 0 0.0 1.6 0.00 0.00 0.00 56 1013.9
20260905003104 33 0 0.0 1.6 0.00 0.00 0.00 55 1013.8
20260905002551 34 0 0.0 3.2 0.00 0.00 0.00 54 1013.8
20260905002052 34 62 0.0 3.2 0.00 0.00 0.00 54 1013.8
20260905001608 35 88 0.0 1.6 0.00 0.00 0.00 52 1013.6
20260905001051 35 0 0.0 1.6 0.00 0.00 0.00 52 1013.6
20260905000552 35 0 0.0 1.6 0.00 0.00 0.00 51 1013.6
20260904235551 36 89 0.0 3.2 0.00 0.00 0.00 50 1013.5
20260904235051 36 0 0.0 3.2 0.00 0.00 0.00 48 1013.3
20260904234601 36 0 0.0 3.2 0.00 0.00 0.00 47 1013.3
20260904234051 36 86 1.6 4.8 0.00 0.00 0.00 46 1013.3
20260904233554 37 272 1.6 4.8 0.00 0.00 0.00 45 1013.2
20260904233110 37 136 1.6 4.8 0.00 0.00 0.00 44 1013.1
20260904232551 38 0 1.6 4.8 0.00 0.00 0.00 43 1013.1
20260904232052 38 70 0.0 3.2 0.00 0.00 0.00 42 1013.1
20260904231602 38 92 1.6 3.2 0.00 0.00 0.00 42 1013.0
20260904231051 38 84 0.0 4.8 0.00 0.00 0.00 42 1013.0
20260904230551 38 86 1.6 6.4 0.00 0.00 0.00 42 1013.1
20260904230100 38 90 1.6 6.4 0.00 0.00 0.00 42 1013.2
20260904225551 38 20 1.6 6.4 0.00 0.00 0.00 42 1013.3
20260904225051 39 80 1.6 8.0 0.00 0.00 0.00 41 1013.2
20260904224602 39 20 1.6 8.0 0.00 0.00 0.00 42 1013.1
20260904224051 39 117 1.6 6.4 0.00 0.00 0.00 40 1013.2
20260904223552 39 91 1.6 6.4 0.00 0.00 0.00 41 1013.2
20260904223101 39 29 0.0 4.8 0.00 0.00 0.00 43 1013.3
20260904222552 38 117 1.6 6.4 0.00 0.00 0.00 44 1013.2
20260904222051 39 53 1.6 6.4 0.00 0.00 0.00 42 1013.2
20260904221605 39 122 1.6 6.4 0.00 0.00 0.00 45 1013.2
20260904221052 39 139 1.6 4.8 0.00 0.00 0.00 42 1013.2
20260904220551 40 91 1.6 4.8 0.00 0.00 0.00 43 1013.3
20260904220110 40 94 1.6 4.8 0.00 0.00 0.00 42 1013.2
20260904215550 39 88 1.6 4.8 0.00 0.00 0.00 43 1013.1
20260904215051 40 82 1.6 4.8 0.00 0.00 0.00 41 1013.2
20260904214559 39 35 1.6 4.8 0.00 0.00 0.00 41 1013.2
20260904214054 40 0 1.6 4.8 0.00 0.00 0.00 44 1013.2
20260904213551 39 0 3.2 6.4 0.00 0.00 0.00 45 1013.3
20260904213104 39 79 3.2 6.4 0.00 0.00 0.00 44 1013.5
20260904212555 39 111 1.6 4.8 0.00 0.00 0.00 45 1013.5
20260904212051 39 155 1.6 4.8 0.00 0.00 0.00 43 1013.5
20260904211559 39 0 1.6 6.4 0.00 0.00 0.00 45 1013.6
20260904211052 38 118 1.6 6.4 0.00 0.00 0.00 46 1013.7
20260904210551 38 258 0.0 6.4 0.00 0.00 0.00 45 1013.7
20260904210100 38 145 1.6 6.4 0.00 0.00 0.00 42 1013.9
20260904205555 38 113 1.6 6.4 0.00 0.00 0.00 46 1013.9
20260904205051 38 261 3.2 8.0 0.00 0.00 0.00 45 1014.0
20260904204603 39 132 3.2 8.0 0.00 0.00 0.00 43 1014.0
20260904204051 40 143 1.6 8.0 0.00 0.00 0.00 43 1014.0
20260904203551 40 95 0.0 6.4 0.00 0.00 0.00 47 1014.1
20260904203100 39 121 1.6 6.4 0.00 0.00 0.00 42 1014.2
20260904202551 39 161 1.6 4.8 0.00 0.00 0.00 44 1014.2
20260904202051 40 115 1.6 4.8 0.00 0.00 0.00 44 1014.3
20260904201623 40 71 0.0 6.4 0.00 0.00 0.00 44 1014.4
20260904201051 40 81 1.6 6.4 0.00 0.00 0.00 42 1014.5
20260904200551 39 82 1.6 6.4 0.00 0.00 0.00 43 1014.5
20260904200104 39 87 3.2 6.4 0.00 0.00 0.00 47 1014.8
20260904195552 38 46 1.6 4.8 0.00 0.00 0.00 44 1014.8
20260904195054 38 108 1.6 4.8 0.00 0.00 0.00 49 1015.0
20260904194601 38 149 1.6 6.4 0.00 0.00 0.00 47 1015.0
20260904194051 37 0 1.6 6.4 0.00 0.00 0.00 48 1015.1
20260904193551 37 179 1.6 6.4 0.00 0.00 0.00 48 1015.3
20260904193107 37 169 1.6 4.8 0.00 0.00 0.00 48 1015.5
20260904192551 37 162 0.0 9.7 0.00 0.00 0.00 51 1015.4
20260904192052 37 0 1.6 9.7 0.00 0.00 0.00 49 1015.5
20260904191557 38 79 3.2 6.4 0.00 0.00 0.00 47 1015.6
20260904191052 38 83 0.0 8.0 0.00 0.00 0.00 49 1015.6
20260904190552 38 94 1.6 8.0 0.00 0.00 0.00 49 1015.6
20260904190105 38 71 3.2 9.7 0.00 0.00 0.00 47 1015.7
20260904185551 38 91 3.2 11.3 0.00 0.00 0.00 49 1015.7
20260904185053 38 80 3.2 11.3 0.00 0.00 0.00 52 1015.7
20260904184559 38 83 1.6 8.0 0.00 0.00 0.00 49 1015.8
20260904184051 38 88 1.6 8.0 0.00 0.00 0.00 53 1015.8
20260904183550 38 146 3.2 8.0 0.00 0.00 0.00 51 1016.0
20260904183115 38 85 1.6 4.8 0.00 0.00 0.00 60 1016.0
20260904182551 38 162 1.6 4.8 0.00 0.00 0.00 52 1016.0
20260904182051 38 159 1.6 6.4 0.00 0.00 0.00 51 1016.1
20260904181600 38 126 1.6 6.4 0.00 0.00 0.00 56 1016.2
20260904181051 38 92 1.6 6.4 0.00 0.00 0.00 54 1016.2
20260904180551 38 147 1.6 6.4 0.00 0.00 0.00 51 1016.3
20260904180112 38 145 3.2 6.4 0.00 0.00 0.00 49 1016.5
20260904175552 38 96 0.0 4.8 0.00 0.00 0.00 55 1016.5
20260904175051 37 115 1.6 4.8 0.00 0.00 0.00 54 1016.5
20260904174610 37 165 0.0 6.4 0.00 0.00 0.00 52 1016.6
20260904174051 37 110 1.6 6.4 0.00 0.00 0.00 55 1016.6
20260904173551 37 121 3.2 8.0 0.00 0.00 0.00 55 1016.7
20260904173118 37 97 1.6 8.0 0.00 0.00 0.00 55 1016.6
20260904172554 37 107 1.6 6.4 0.00 0.00 0.00 54 1016.8
20260904172052 37 97 1.6 4.8 0.00 0.00 0.00 57 1016.9
20260904171606 36 0 1.6 8.0 0.00 0.00 0.00 55 1017.0